#Datum;Uhrzeit;WR;Pac;DaySum;Status;WR;Pac;DaySum;Status;Pdc1;Udc;Temp;WR;Pac;DaySum;Status;Pdc1;Udc;Temp;WR;Pac;DaySum;Status;Pdc1;Udc;Temp;WR;Pac;DaySum;Status;Pdc1;Pdc2;Udc1;Udc2;Temp;WR;Pac;DaySum;Status;Pdc1;Pdc2;Udc1;Udc2;Temp;WR;Pac;DaySum;Status;Pdc1;Udc;Temp;WR;Pac;DaySum;Status;Pdc1;Udc;Temp;WR;Pac;DaySum;Status;Pdc1;Udc;Temp
18.11.20;23:55:00;1;491;11599;0;2;0;15524;0;0;0;0;3;0;10421;0;0;0;0;4;0;11948;0;0;0;0;5;0;0;0;0;0;0;0;0;6;0;30571;0;0;0;0;0;0;7;0;28153;0;0;0;0;8;0;13692;0;0;0;0;9;0;14852;0;0;0;0
18.11.20;23:50:00;1;502;11557;0;2;0;15524;0;0;0;0;3;0;10421;0;0;0;0;4;0;11948;0;0;0;0;5;0;0;0;0;0;0;0;0;6;0;30571;0;0;0;0;0;0;7;0;28153;0;0;0;0;8;0;13692;0;0;0;0;9;0;14852;0;0;0;0
18.11.20;23:45:00;1;508;11516;0;2;0;15524;0;0;0;0;3;0;10421;0;0;0;0;4;0;11948;0;0;0;0;5;0;0;0;0;0;0;0;0;6;0;30571;0;0;0;0;0;0;7;0;28153;0;0;0;0;8;0;13692;0;0;0;0;9;0;14852;0;0;0;0
18.11.20;23:40:00;1;535;11473;0;2;0;15524;0;0;0;0;3;0;10421;0;0;0;0;4;0;11948;0;0;0;0;5;0;0;0;0;0;0;0;0;6;0;30571;0;0;0;0;0;0;7;0;28153;0;0;0;0;8;0;13692;0;0;0;0;9;0;14852;0;0;0;0
18.11.20;23:35:00;1;524;11429;0;2;0;15524;0;0;0;0;3;0;10421;0;0;0;0;4;0;11948;0;0;0;0;5;0;0;0;0;0;0;0;0;6;0;30571;0;0;0;0;0;0;7;0;28153;0;0;0;0;8;0;13692;0;0;0;0;9;0;14852;0;0;0;0
18.11.20;23:30:00;1;534;11384;0;2;0;15524;0;0;0;0;3;0;10421;0;0;0;0;4;0;11948;0;0;0;0;5;0;0;0;0;0;0;0;0;6;0;30571;0;0;0;0;0;0;7;0;28153;0;0;0;0;8;0;13692;0;0;0;0;9;0;14852;0;0;0;0
18.11.20;23:25:00;1;517;11338;0;2;0;15524;0;0;0;0;3;0;10421;0;0;0;0;4;0;11948;0;0;0;0;5;0;0;0;0;0;0;0;0;6;0;30571;0;0;0;0;0;0;7;0;28153;0;0;0;0;8;0;13692;0;0;0;0;9;0;14852;0;0;0;0
18.11.20;23:20:00;1;545;11296;0;2;0;15524;0;0;0;0;3;0;10421;0;0;0;0;4;0;11948;0;0;0;0;5;0;0;0;0;0;0;0;0;6;0;30571;0;0;0;0;0;0;7;0;28153;0;0;0;0;8;0;13692;0;0;0;0;9;0;14852;0;0;0;0
18.11.20;23:15:00;1;557;11250;0;2;0;15524;0;0;0;0;3;0;10421;0;0;0;0;4;0;11948;0;0;0;0;5;0;0;0;0;0;0;0;0;6;0;30571;0;0;0;0;0;0;7;0;28153;0;0;0;0;8;0;13692;0;0;0;0;9;0;14852;0;0;0;0
18.11.20;23:10:00;1;525;11204;0;2;0;15524;0;0;0;0;3;0;10421;0;0;0;0;4;0;11948;0;0;0;0;5;0;0;0;0;0;0;0;0;6;0;30571;0;0;0;0;0;0;7;0;28153;0;0;0;0;8;0;13692;0;0;0;0;9;0;14852;0;0;0;0
18.11.20;23:05:00;1;564;11159;0;2;0;15524;0;0;0;0;3;0;10421;0;0;0;0;4;0;11948;0;0;0;0;5;0;0;0;0;0;0;0;0;6;0;30571;0;0;0;0;0;0;7;0;28153;0;0;0;0;8;0;13692;0;0;0;0;9;0;14852;0;0;0;0
18.11.20;23:00:00;1;707;11112;0;2;0;15524;0;0;0;0;3;0;10421;0;0;0;0;4;0;11948;0;0;0;0;5;0;0;0;0;0;0;0;0;6;0;30571;0;0;0;0;0;0;7;0;28153;0;0;0;0;8;0;13692;0;0;0;0;9;0;14852;0;0;0;0
18.11.20;22:55:00;1;658;11054;0;2;0;15524;0;0;0;0;3;0;10421;0;0;0;0;4;0;11948;0;0;0;0;5;0;0;0;0;0;0;0;0;6;0;30571;2;0;0;0;0;0;7;0;28153;0;0;0;0;8;0;13692;0;0;0;0;9;0;14852;0;0;0;0
18.11.20;22:50:00;1;679;10999;0;2;0;15524;0;0;0;0;3;0;10421;0;0;0;0;4;0;11948;0;0;0;0;5;0;0;0;0;0;0;0;0;6;0;30571;2;0;0;0;0;0;7;0;28153;0;0;0;0;8;0;13692;0;0;0;0;9;0;14852;0;0;0;0
18.11.20;22:45:00;1;712;10942;0;2;0;15524;0;0;0;0;3;0;10421;0;0;0;0;4;0;11948;0;0;0;0;5;0;0;0;0;0;0;0;0;6;0;30571;2;0;0;0;0;0;7;0;28153;0;0;0;0;8;0;13692;0;0;0;0;9;0;14852;0;0;0;0
18.11.20;22:40:00;1;659;10883;0;2;0;15524;0;0;0;0;3;0;10421;0;0;0;0;4;0;11948;0;0;0;0;5;0;0;0;0;0;0;0;0;6;0;30571;2;0;0;0;0;0;7;0;28153;0;0;0;0;8;0;13692;0;0;0;0;9;0;14852;0;0;0;0
18.11.20;22:35:00;1;733;10828;0;2;0;15524;0;0;0;0;3;0;10421;0;0;0;0;4;0;11948;0;0;0;0;5;0;0;0;0;0;0;0;0;6;0;30571;2;0;0;0;0;0;7;0;28153;0;0;0;0;8;0;13692;0;0;0;0;9;0;14852;0;0;0;0
18.11.20;22:30:00;1;717;10767;0;2;0;15524;0;0;0;0;3;0;10421;0;0;0;0;4;0;11948;0;0;0;0;5;0;0;0;0;0;0;0;0;6;0;30571;2;0;0;0;0;0;7;0;28153;0;0;0;0;8;0;13692;0;0;0;0;9;0;14852;0;0;0;0
18.11.20;22:25:00;1;658;10708;0;2;0;15524;0;0;0;0;3;0;10421;0;0;0;0;4;0;11948;0;0;0;0;5;0;0;0;0;0;0;0;0;6;0;30571;2;0;0;0;0;0;7;0;28153;0;0;0;0;8;0;13692;0;0;0;0;9;0;14852;0;0;0;0
18.11.20;22:20:00;1;699;10653;0;2;0;15524;0;0;0;0;3;0;10421;0;0;0;0;4;0;11948;0;0;0;0;5;0;0;0;0;0;0;0;0;6;0;30571;2;0;0;0;0;0;7;0;28153;0;0;0;0;8;0;13692;0;0;0;0;9;0;14852;0;0;0;0
18.11.20;22:15:00;1;688;10594;0;2;0;15524;0;0;0;0;3;0;10421;0;0;0;0;4;0;11948;0;0;0;0;5;0;0;0;0;0;0;0;0;6;0;30571;2;0;0;0;0;0;7;0;28153;0;0;0;0;8;0;13692;0;0;0;0;9;0;14852;0;0;0;0
18.11.20;22:10:00;1;706;10537;0;2;0;15524;0;0;0;0;3;0;10421;0;0;0;0;4;0;11948;0;0;0;0;5;0;0;0;0;0;0;0;0;6;0;30571;2;0;0;0;0;0;7;0;28153;0;0;0;0;8;0;13692;0;0;0;0;9;0;14852;0;0;0;0
18.11.20;22:05:00;1;720;10477;0;2;0;15524;0;0;0;0;3;0;10421;0;0;0;0;4;0;11948;0;0;0;0;5;0;0;0;0;0;0;0;0;6;0;30571;2;0;0;0;0;0;7;0;28153;0;0;0;0;8;0;13692;0;0;0;0;9;0;14852;0;0;0;0
18.11.20;22:00:00;1;672;10416;0;2;0;15524;0;0;0;0;3;0;10421;0;0;0;0;4;0;11948;0;0;0;0;5;0;0;0;0;0;0;0;0;6;0;30571;2;0;0;0;0;0;7;0;28153;0;0;0;0;8;0;13692;0;0;0;0;9;0;14852;0;0;0;0
18.11.20;21:55:00;1;664;10360;0;2;0;15524;0;0;0;0;3;0;10421;0;0;0;0;4;0;11948;0;0;0;0;5;0;0;0;0;0;0;0;0;6;0;30571;2;0;0;0;0;0;7;0;28153;0;0;0;0;8;0;13692;0;0;0;0;9;0;14852;0;0;0;0
18.11.20;21:50:00;1;631;10304;0;2;0;15524;0;0;0;0;3;0;10421;0;0;0;0;4;0;11948;0;0;0;0;5;0;0;0;0;0;0;0;0;6;0;30571;2;0;0;0;0;0;7;0;28153;0;0;0;0;8;0;13692;0;0;0;0;9;0;14852;0;0;0;0
18.11.20;21:45:00;1;1356;10252;0;2;0;15524;0;0;0;0;3;0;10421;0;0;0;0;4;0;11948;0;0;0;0;5;0;0;0;0;0;0;0;0;6;0;30571;2;0;0;0;0;0;7;0;28153;0;0;0;0;8;0;13692;0;0;0;0;9;0;14852;0;0;0;0
18.11.20;21:40:00;1;607;10135;0;2;0;15524;0;0;0;0;3;0;10421;0;0;0;0;4;0;11948;0;0;0;0;5;0;0;0;0;0;0;0;0;6;0;30571;2;0;0;0;0;0;7;0;28153;0;0;0;0;8;0;13692;0;0;0;0;9;0;14852;0;0;0;0
18.11.20;21:35:00;1;682;10085;0;2;0;15524;0;0;0;0;3;0;10421;0;0;0;0;4;0;11948;0;0;0;0;5;0;0;0;0;0;0;0;0;6;0;30571;2;0;0;0;0;0;7;0;28153;0;0;0;0;8;0;13692;0;0;0;0;9;0;14852;0;0;0;0
18.11.20;21:30:00;1;644;10027;0;2;0;15524;0;0;0;0;3;0;10421;0;0;0;0;4;0;11948;0;0;0;0;5;0;0;0;0;0;0;0;0;6;0;30571;2;0;0;0;0;0;7;0;28153;0;0;0;0;8;0;13692;0;0;0;0;9;0;14852;0;0;0;0
18.11.20;21:25:00;1;687;9973;0;2;0;15524;0;0;0;0;3;0;10421;0;0;0;0;4;0;11948;0;0;0;0;5;0;0;0;0;0;0;0;0;6;0;30571;2;0;0;0;0;0;7;0;28153;0;0;0;0;8;0;13692;0;0;0;0;9;0;14852;0;0;0;0
18.11.20;21:20:00;1;631;9917;0;2;0;15524;0;0;0;0;3;0;10421;0;0;0;0;4;0;11948;0;0;0;0;5;0;0;0;0;0;0;0;0;6;0;30571;2;0;0;0;0;0;7;0;28153;0;0;0;0;8;0;13692;0;0;0;0;9;0;14852;0;0;0;0
18.11.20;21:15:00;1;674;9864;0;2;0;15524;0;0;0;0;3;0;10421;0;0;0;0;4;0;11948;0;0;0;0;5;0;0;0;0;0;0;0;0;6;0;30571;2;0;0;0;0;0;7;0;28153;0;0;0;0;8;0;13692;0;0;0;0;9;0;14852;0;0;0;0
18.11.20;21:10:00;1;725;9808;0;2;0;15524;0;0;0;0;3;0;10421;0;0;0;0;4;0;11948;0;0;0;0;5;0;0;0;0;0;0;0;0;6;0;30571;2;0;0;0;0;0;7;0;28153;0;0;0;0;8;0;13692;0;0;0;0;9;0;14852;0;0;0;0
18.11.20;21:05:00;1;924;9747;0;2;0;15524;0;0;0;0;3;0;10421;0;0;0;0;4;0;11948;0;0;0;0;5;0;0;0;0;0;0;0;0;6;0;30571;2;0;0;0;0;0;7;0;28153;0;0;0;0;8;0;13692;0;0;0;0;9;0;14852;0;0;0;0
18.11.20;21:00:00;1;1050;9674;0;2;0;15524;0;0;0;0;3;0;10421;0;0;0;0;4;0;11948;0;0;0;0;5;0;0;0;0;0;0;0;0;6;0;30571;2;0;0;0;0;0;7;0;28153;0;0;0;0;8;0;13692;0;0;0;0;9;0;14852;0;0;0;0
18.11.20;20:55:00;1;1034;9588;0;2;0;15524;0;0;0;0;3;0;10421;0;0;0;0;4;0;11948;0;0;0;0;5;0;0;0;0;0;0;0;0;6;0;30571;2;0;0;0;0;0;7;0;28153;0;0;0;0;8;0;13692;0;0;0;0;9;0;14852;0;0;0;0
18.11.20;20:50:00;1;1140;9501;0;2;0;15524;0;0;0;0;3;0;10421;0;0;0;0;4;0;11948;0;0;0;0;5;0;0;0;0;0;0;0;0;6;0;30571;2;0;0;0;0;0;7;0;28153;0;0;0;0;8;0;13692;0;0;0;0;9;0;14852;0;0;0;0
18.11.20;20:45:00;1;1095;9407;0;2;0;15524;0;0;0;0;3;0;10421;0;0;0;0;4;0;11948;0;0;0;0;5;0;0;0;0;0;0;0;0;6;0;30571;2;0;0;0;0;0;7;0;28153;0;0;0;0;8;0;13692;0;0;0;0;9;0;14852;0;0;0;0
18.11.20;20:40:00;1;1062;9313;0;2;0;15524;0;0;0;0;3;0;10421;0;0;0;0;4;0;11948;0;0;0;0;5;0;0;0;0;0;0;0;0;6;0;30571;2;0;0;0;0;0;7;0;28153;0;0;0;0;8;0;13692;0;0;0;0;9;0;14852;0;0;0;0
18.11.20;20:35:00;1;1073;9225;0;2;0;15524;0;0;0;0;3;0;10421;0;0;0;0;4;0;11948;0;0;0;0;5;0;0;0;0;0;0;0;0;6;0;30571;2;0;0;0;0;0;7;0;28153;0;0;0;0;8;0;13692;0;0;0;0;9;0;14852;0;0;0;0
18.11.20;20:30:00;1;1188;9139;0;2;0;15524;0;0;0;0;3;0;10421;0;0;0;0;4;0;11948;0;0;0;0;5;0;0;0;0;0;0;0;0;6;0;30571;2;0;0;0;0;0;7;0;28153;0;0;0;0;8;0;13692;0;0;0;0;9;0;14852;0;0;0;0
18.11.20;20:25:00;1;921;9047;0;2;0;15524;0;0;0;0;3;0;10421;0;0;0;0;4;0;11948;0;0;0;0;5;0;0;0;0;0;0;0;0;6;0;30571;2;0;0;0;0;0;7;0;28153;0;0;0;0;8;0;13692;0;0;0;0;9;0;14852;0;0;0;0
18.11.20;20:20:00;1;932;8968;0;2;0;15524;0;0;0;0;3;0;10421;0;0;0;0;4;0;11948;0;0;0;0;5;0;0;0;0;0;0;0;0;6;0;30571;2;0;0;0;0;0;7;0;28153;0;0;0;0;8;0;13692;0;0;0;0;9;0;14852;0;0;0;0
18.11.20;20:15:00;1;949;8891;0;2;0;15524;0;0;0;0;3;0;10421;0;0;0;0;4;0;11948;0;0;0;0;5;0;0;0;0;0;0;0;0;6;0;30571;2;0;0;0;0;0;7;0;28153;0;0;0;0;8;0;13692;0;0;0;0;9;0;14852;0;0;0;0
18.11.20;20:10:00;1;999;8812;0;2;0;15524;0;0;0;0;3;0;10421;0;0;0;0;4;0;11948;0;0;0;0;5;0;0;0;0;0;0;0;0;6;0;30571;2;0;0;0;0;0;7;0;28153;0;0;0;0;8;0;13692;0;0;0;0;9;0;14852;0;0;0;0
18.11.20;20:05:00;1;935;8727;0;2;0;15524;0;0;0;0;3;0;10421;0;0;0;0;4;0;11948;0;0;0;0;5;0;0;0;0;0;0;0;0;6;0;30571;2;0;0;0;0;0;7;0;28153;0;0;0;0;8;0;13692;0;0;0;0;9;0;14852;0;0;0;0
18.11.20;20:00:00;1;946;8648;0;2;0;15524;0;0;0;0;3;0;10421;0;0;0;0;4;0;11948;0;0;0;0;5;0;0;0;0;0;0;0;0;6;0;30571;2;0;0;0;0;0;7;0;28153;0;0;0;0;8;0;13692;0;0;0;0;9;0;14852;0;0;0;0
18.11.20;19:55:00;1;1149;8569;0;2;0;15524;0;0;0;0;3;0;10421;0;0;0;0;4;0;11948;0;0;0;0;5;0;0;0;0;0;0;0;0;6;0;30571;2;0;0;0;0;0;7;0;28153;0;0;0;0;8;0;13692;0;0;0;0;9;0;14852;0;0;0;0
18.11.20;19:50:00;1;1243;8475;0;2;0;15524;0;0;0;0;3;0;10421;0;0;0;0;4;0;11948;0;0;0;0;5;0;0;0;0;0;0;0;0;6;0;30571;2;0;0;0;0;0;7;0;28153;0;0;0;0;8;0;13692;0;0;0;0;9;0;14852;0;0;0;0
18.11.20;19:45:00;1;924;8371;0;2;0;15524;0;0;0;0;3;0;10421;0;0;0;0;4;0;11948;0;0;0;0;5;0;0;0;0;0;0;0;0;6;0;30571;2;0;0;0;0;0;7;0;28153;0;0;0;0;8;0;13692;0;0;0;0;9;0;14852;0;0;0;0
18.11.20;19:40:00;1;828;8294;0;2;0;15524;0;0;0;0;3;0;10421;0;0;0;0;4;0;11948;0;0;0;0;5;0;0;0;0;0;0;0;0;6;0;30571;2;0;0;0;0;0;7;0;28153;0;0;0;0;8;0;13692;0;0;0;0;9;0;14852;0;0;0;0
18.11.20;19:35:00;1;959;8223;0;2;0;15524;0;0;0;0;3;0;10421;0;0;0;0;4;0;11948;0;0;0;0;5;0;0;0;0;0;0;0;0;6;0;30571;2;0;0;0;0;0;7;0;28153;0;0;0;0;8;0;13692;0;0;0;0;9;0;14852;0;0;0;0
18.11.20;19:30:00;1;746;8148;0;2;0;15524;0;0;0;0;3;0;10421;0;0;0;0;4;0;11948;0;0;0;0;5;0;0;0;0;0;0;0;0;6;0;30571;2;0;0;0;0;0;7;0;28153;0;0;0;0;8;0;13692;0;0;0;0;9;0;14852;0;0;0;0
18.11.20;19:25:00;1;794;8087;0;2;0;15524;0;0;0;0;3;0;10421;0;0;0;0;4;0;11948;0;0;0;0;5;0;0;0;0;0;0;0;0;6;0;30571;2;0;0;0;0;0;7;0;28153;0;0;0;0;8;0;13692;0;0;0;0;9;0;14852;0;0;0;0
18.11.20;19:20:00;1;981;8022;0;2;0;15524;0;0;0;0;3;0;10421;0;0;0;0;4;0;11948;0;0;0;0;5;0;0;0;0;0;0;0;0;6;0;30571;2;0;0;0;0;0;7;0;28153;0;0;0;0;8;0;13692;0;0;0;0;9;0;14852;0;0;0;0
18.11.20;19:15:00;1;1728;7944;0;2;0;15524;0;0;0;0;3;0;10421;0;0;0;0;4;0;11948;0;0;0;0;5;0;0;0;0;0;0;0;0;6;0;30571;2;0;0;0;0;0;7;0;28153;0;0;0;0;8;0;13692;0;0;0;0;9;0;14852;0;0;0;0
18.11.20;19:10:00;1;2061;7805;0;2;0;15524;0;0;0;0;3;0;10421;0;0;0;0;4;0;11948;0;0;0;0;5;0;0;0;0;0;0;0;0;6;0;30571;2;0;0;0;0;0;7;0;28153;0;0;0;0;8;0;13692;0;0;0;0;9;0;14852;0;0;0;0
18.11.20;19:05:00;1;895;7665;0;2;0;15524;0;0;0;0;3;0;10421;0;0;0;0;4;0;11948;0;0;0;0;5;0;0;0;0;0;0;0;0;6;0;30571;2;0;0;0;0;0;7;0;28153;0;0;0;0;8;0;13692;0;0;0;0;9;0;14852;0;0;0;0
18.11.20;19:00:00;1;1073;7588;0;2;0;15524;0;0;0;0;3;0;10421;0;0;0;0;4;0;11948;0;0;0;0;5;0;0;0;0;0;0;0;0;6;0;30571;2;0;0;0;0;0;7;0;28153;0;0;0;0;8;0;13692;0;0;0;0;9;0;14852;0;0;0;0
18.11.20;18:55:00;1;3024;7487;0;2;0;15524;0;0;0;0;3;0;10421;0;0;0;0;4;0;11948;0;0;0;0;5;0;0;0;0;0;0;0;0;6;0;30571;2;0;0;0;0;0;7;0;28153;0;0;0;0;8;0;13692;0;0;0;0;9;0;14852;0;0;0;0
18.11.20;18:50:00;1;788;7222;0;2;0;15524;0;0;0;0;3;0;10421;0;0;0;0;4;0;11948;0;0;0;0;5;0;0;0;0;0;0;0;0;6;0;30571;2;0;0;0;0;0;7;0;28153;0;0;0;0;8;0;13692;0;0;0;0;9;0;14852;0;0;0;0
18.11.20;18:45:00;1;554;7150;0;2;0;15524;0;0;0;0;3;0;10421;0;0;0;0;4;0;11948;0;0;0;0;5;0;0;0;0;0;0;0;0;6;0;30571;2;0;0;0;0;0;7;0;28153;0;0;0;0;8;0;13692;0;0;0;0;9;0;14852;0;0;0;0
18.11.20;18:40:00;1;470;7098;0;2;0;15524;0;0;0;0;3;0;10421;0;0;0;0;4;0;11948;0;0;0;0;5;0;0;0;0;0;0;0;0;6;0;30571;2;0;0;0;0;0;7;0;28153;0;0;0;0;8;0;13692;0;0;0;0;9;0;14852;0;0;0;0
18.11.20;18:35:00;1;465;7059;0;2;0;15524;0;0;0;0;3;0;10421;0;0;0;0;4;0;11948;0;0;0;0;5;0;0;0;0;0;0;0;0;6;0;30571;2;0;0;0;0;0;7;0;28153;0;0;0;0;8;0;13692;0;0;0;0;9;0;14852;0;0;0;0
18.11.20;18:30:00;1;472;7020;0;2;0;15524;0;0;0;0;3;0;10421;0;0;0;0;4;0;11948;0;0;0;0;5;0;0;0;0;0;0;0;0;6;0;30571;2;0;0;0;0;0;7;0;28153;0;0;0;0;8;0;13692;0;0;0;0;9;0;14852;0;0;0;0
18.11.20;18:25:00;1;513;6980;0;2;0;15524;0;0;0;0;3;0;10421;0;0;0;0;4;0;11948;0;0;0;0;5;0;0;0;0;0;0;0;0;6;0;30571;2;0;0;0;0;0;7;0;28153;0;0;0;0;8;0;13692;0;0;0;0;9;0;14852;0;0;0;0
18.11.20;18:20:00;1;580;6938;0;2;0;15524;0;0;0;0;3;0;10421;0;0;0;0;4;0;11948;0;0;0;0;5;0;0;0;0;0;0;0;0;6;0;30571;2;0;0;0;0;0;7;0;28153;0;0;0;0;8;0;13692;0;0;0;0;9;0;14852;0;0;0;0
18.11.20;18:15:00;1;588;6889;0;2;0;15524;0;0;0;0;3;0;10421;0;0;0;0;4;0;11948;0;0;0;0;5;0;0;0;0;0;0;0;0;6;0;30571;2;0;0;0;0;0;7;0;28153;0;0;0;0;8;0;13692;0;0;0;0;9;0;14852;0;0;0;0
18.11.20;18:10:00;1;549;6839;0;2;0;15524;0;0;0;0;3;0;10421;0;0;0;0;4;0;11948;0;0;0;0;5;0;0;0;0;0;0;0;0;6;0;30571;2;0;0;0;0;0;7;0;28153;0;0;0;0;8;0;13692;0;0;0;0;9;0;14852;0;0;0;0
18.11.20;18:05:00;1;531;6793;0;2;0;15524;0;0;0;0;3;0;10421;0;0;0;0;4;0;11948;0;0;0;0;5;0;0;0;0;0;0;0;0;6;0;30571;2;0;0;0;0;0;7;0;28153;0;0;0;0;8;0;13692;0;0;0;0;9;0;14852;0;0;0;0
18.11.20;18:00:00;1;438;6749;0;2;0;15524;0;0;0;0;3;0;10421;0;0;0;0;4;0;11948;0;0;0;0;5;0;0;0;0;0;0;0;0;6;0;30571;2;0;0;0;0;0;7;0;28153;0;0;0;0;8;0;13692;0;0;0;0;9;0;14852;0;0;0;0
18.11.20;17:55:00;1;462;6709;0;2;0;15524;0;0;0;0;3;0;10421;0;0;0;0;4;0;11948;0;0;0;0;5;0;0;0;0;0;0;0;0;6;0;30571;2;0;0;0;0;0;7;0;28153;0;0;0;0;8;0;13692;0;0;0;0;9;0;14852;0;0;0;0
18.11.20;17:50:00;1;512;6671;0;2;0;15524;0;0;0;0;3;0;10421;0;0;0;0;4;0;11948;0;0;0;0;5;0;0;0;0;0;0;0;0;6;0;30571;2;0;0;0;0;0;7;0;28153;0;0;0;0;8;0;13692;0;0;0;0;9;0;14852;0;0;0;0
18.11.20;17:45:00;1;472;6627;0;2;0;15524;0;0;0;0;3;0;10421;0;0;0;0;4;0;11948;0;0;0;0;5;0;0;0;0;0;0;0;0;6;0;30571;2;0;0;0;0;0;7;0;28153;0;0;0;0;8;0;13692;0;0;0;0;9;0;14852;0;0;0;0
18.11.20;17:40:00;1;294;6587;0;2;0;15524;0;0;0;0;3;0;10421;0;0;0;0;4;0;11948;0;0;0;0;5;0;0;0;0;0;0;0;0;6;0;30571;2;0;0;0;0;0;7;0;28153;0;0;0;0;8;0;13692;0;0;0;0;9;0;14852;0;0;0;0
18.11.20;17:35:00;1;262;6561;0;2;0;15524;0;0;0;0;3;0;10421;0;0;0;0;4;0;11948;0;0;0;0;5;0;0;0;0;0;0;0;0;6;0;30571;2;0;0;0;0;0;7;0;28153;0;0;0;0;8;0;13692;0;0;0;0;9;0;14852;0;0;0;0
18.11.20;17:30:00;1;324;6539;0;2;0;15524;0;0;0;0;3;0;10421;0;0;0;0;4;0;11948;0;0;0;0;5;0;0;0;0;0;0;0;0;6;0;30571;2;0;0;0;0;0;7;0;28153;0;0;0;0;8;0;13692;0;0;0;0;9;0;14852;0;0;0;0
18.11.20;17:25:00;1;689;6512;0;2;0;15524;0;0;0;0;3;0;10421;0;0;0;0;4;0;11948;0;0;0;0;5;0;0;0;0;0;0;0;0;6;0;30571;2;0;0;0;0;0;7;0;28153;0;0;0;0;8;0;13692;0;0;0;0;9;0;14852;0;0;0;0
18.11.20;17:20:00;1;656;6455;0;2;0;15524;0;0;0;0;3;0;10421;0;0;0;0;4;0;11948;0;0;0;0;5;0;0;0;0;0;0;0;0;6;0;30571;2;0;0;0;0;0;7;0;28153;0;0;0;0;8;0;13692;0;0;0;0;9;0;14852;0;0;0;0
18.11.20;17:15:00;1;745;6406;0;2;0;15524;0;0;0;0;3;0;10421;0;0;0;0;4;0;11948;0;0;0;0;5;0;0;0;0;0;0;0;0;6;0;30571;2;0;0;0;0;0;7;0;28153;0;0;0;0;8;0;13692;0;0;0;0;9;0;14852;0;0;0;0
18.11.20;17:10:00;1;940;6351;0;2;0;15524;0;0;0;0;3;0;10421;0;0;0;0;4;0;11948;0;0;0;0;5;0;0;0;0;0;0;0;0;6;0;30571;2;0;0;0;0;0;7;0;28153;0;0;0;0;8;0;13692;0;0;0;0;9;0;14852;0;0;0;0
18.11.20;17:05:00;1;725;6275;0;2;0;15524;0;0;0;0;3;0;10421;0;0;0;0;4;0;11948;0;0;0;0;5;0;0;0;0;0;0;0;0;6;0;30571;2;0;0;0;0;0;7;0;28153;0;0;0;0;8;0;13692;0;0;0;0;9;0;14852;0;0;0;0
18.11.20;17:00:00;1;334;6230;0;2;0;15524;0;0;0;0;3;0;10421;0;0;0;0;4;0;11948;0;0;0;0;5;0;0;0;0;0;0;0;0;6;0;30571;2;0;0;0;0;0;7;0;28153;0;0;0;0;8;0;13692;0;0;0;0;9;0;14852;0;0;0;0
18.11.20;16:55:00;1;361;6202;0;2;0;15524;0;0;85;6;3;0;10421;0;0;226;16;4;0;11948;0;0;0;0;5;0;0;0;0;0;0;0;0;6;0;30571;2;0;0;0;0;0;7;0;28153;0;0;0;0;8;0;13692;0;0;0;0;9;0;14852;0;0;0;0
18.11.20;16:50:00;1;354;6172;0;2;0;15524;6;0;312;18;3;0;10421;6;0;368;20;4;0;11948;2;0;80;18;5;0;0;0;0;0;0;0;0;6;0;30571;2;1;0;12;12;3;7;0;28153;0;0;37;3;8;0;13692;0;0;36;2;9;0;14852;0;0;0;0
18.11.20;16:45:00;1;281;6142;0;2;0;15524;6;0;376;18;3;0;10421;6;2;453;20;4;0;11948;1;0;170;19;5;0;0;0;0;0;0;0;0;6;0;30571;23;6;3;180;471;27;7;0;28153;6;0;354;23;8;0;13692;6;0;350;20;9;0;14852;6;0;343;17
18.11.20;16:40:00;1;270;6118;0;2;0;15524;6;0;402;19;3;3;10421;6;7;466;21;4;0;11948;1;0;216;19;5;0;0;0;0;0;0;0;0;6;0;30571;23;3;6;387;562;28;7;0;28153;4;3;416;23;8;0;13692;6;0;419;21;9;0;14852;6;2;435;18
18.11.20;16:35:00;1;320;6096;0;2;0;15524;6;0;410;19;3;2;10421;6;5;501;21;4;0;11948;3;0;211;20;5;0;0;0;0;0;0;0;0;6;0;30571;23;6;2;469;576;28;7;1;28153;3;7;434;24;8;0;13692;6;1;435;21;9;0;14852;6;1;486;18
18.11.20;16:30:00;1;911;6069;0;2;0;15524;6;0;413;20;3;1;10421;4;9;476;21;4;6;11948;3;7;200;20;5;0;0;0;0;0;0;0;0;6;0;30571;8;3;5;455;581;29;7;1;28153;6;8;439;24;8;0;13692;6;0;476;21;9;3;14852;4;5;468;19
18.11.20;16:25:00;1;585;6000;0;2;3;15524;4;9;407;21;3;3;10421;3;11;486;22;4;0;11947;3;0;200;21;5;0;0;0;0;0;0;0;0;6;48;30571;1;15;26;499;477;30;7;1;28153;6;7;465;25;8;0;13692;3;1;453;22;9;4;14852;3;7;479;19
18.11.20;16:20:00;1;522;5945;0;2;59;15523;4;90;355;22;3;10;10420;6;21;497;22;4;16;11947;3;17;199;21;5;0;0;0;0;0;0;0;0;6;84;30567;4;27;39;478;456;30;7;39;28153;6;59;383;25;8;1;13692;6;4;481;22;9;4;14851;6;11;498;19
18.11.20;16:15:00;1;608;5887;0;2;94;15519;4;125;361;22;3;27;10420;6;43;494;23;4;37;11946;3;38;197;21;5;0;0;0;0;0;0;0;0;6;117;30560;4;56;73;478;456;30;7;77;28150;4;111;415;26;8;2;13692;6;7;494;22;9;10;14851;6;18;515;20
18.11.20;16:10:00;1;224;5836;0;2;132;15511;4;168;371;23;3;72;10417;4;109;464;24;4;65;11943;3;68;198;21;5;0;0;0;0;0;0;0;0;6;159;30549;4;69;79;478;456;30;7;120;28144;4;157;421;26;8;25;13692;6;40;437;23;9;11;14850;6;19;531;20
18.11.20;16:05:00;1;250;5817;0;2;172;15500;4;211;367;24;3;95;10411;4;136;488;24;4;96;11937;3;100;210;22;5;0;0;0;0;0;0;0;0;6;192;30536;4;77;87;478;456;30;7;177;28134;4;215;432;26;8;53;13690;4;90;440;23;9;53;14849;6;78;491;21
18.11.20;16:00:00;1;307;5796;0;2;672;15485;4;728;389;25;3;296;10403;4;337;433;24;4;302;11929;5;315;204;22;5;0;0;0;0;0;0;0;0;6;368;30519;4;164;205;557;558;30;7;279;28118;4;330;466;27;8;93;13685;4;135;456;23;9;81;14845;4;116;487;22
18.11.20;15:55:00;1;347;5771;0;2;616;15430;4;667;374;25;3;324;10379;4;367;418;25;4;281;11904;5;292;200;22;5;0;0;0;0;0;0;0;0;6;476;30487;4;238;272;573;560;31;7;325;28095;4;368;451;27;8;121;13678;4;150;449;23;9;99;14838;4;134;501;22
18.11.20;15:50:00;1;260;5741;0;2;1035;15379;4;1103;385;26;3;551;10352;4;602;436;25;4;377;11881;5;393;201;22;5;0;0;0;0;0;0;0;0;6;798;30447;4;384;400;592;563;31;7;779;28068;4;835;440;28;8;210;13668;4;248;437;23;9;129;14830;4;166;522;22
18.11.20;15:45:00;1;305;5719;0;2;1079;15294;4;1148;385;27;3;592;10307;4;646;433;26;4;394;11850;5;410;200;22;5;0;0;0;0;0;0;0;0;6;908;30378;4;457;466;587;561;31;7;1125;28004;4;1195;497;28;8;285;13650;4;321;383;24;9;155;14819;4;190;541;23
18.11.20;15:40:00;1;363;5694;0;2;826;15205;4;887;378;27;3;450;10258;4;498;422;26;4;346;11817;5;361;231;23;5;0;0;0;0;0;0;0;0;6;774;30304;4;386;404;582;556;31;7;1001;27911;4;1070;485;28;8;318;13627;4;352;409;24;9;167;14806;4;204;529;23
18.11.20;15:35:00;1;370;5663;0;2;1046;15136;4;1116;386;28;3;565;10220;4;617;429;26;4;397;11788;5;414;236;23;5;0;0;0;0;0;0;0;0;6;950;30239;4;481;488;588;562;31;7;1170;27827;4;1244;500;29;8;448;13600;4;488;456;24;9;191;14792;4;223;515;24
18.11.20;15:30:00;1;377;5633;0;2;1398;15046;4;1480;387;28;3;768;10172;4;827;438;27;4;476;11755;5;495;239;23;5;0;0;0;0;0;0;0;0;6;1307;30154;4;647;654;591;570;31;7;1599;27729;4;1690;509;29;8;647;13562;4;694;473;24;9;206;14776;4;243;473;24
18.11.20;15:25:00;1;352;5601;0;2;1142;14930;4;1213;385;28;3;625;10108;4;678;436;27;4;456;11715;5;475;247;23;5;0;0;0;0;0;0;0;0;6;1132;30046;4;574;579;590;561;31;7;1292;27594;4;1369;502;30;8;605;13508;4;655;483;25;9;218;14759;4;247;366;25
18.11.20;15:20:00;1;307;5572;0;2;1133;14834;4;1205;388;29;3;627;10055;4;680;430;27;4;467;11677;5;487;251;24;5;0;0;0;0;0;0;0;0;6;1179;29950;4;570;586;589;565;31;7;1454;27486;4;1534;498;30;8;767;13457;4;816;476;25;9;304;14740;4;337;353;26
18.11.20;15:15:00;1;311;5546;0;2;959;14739;4;1025;382;29;3;530;10003;4;581;423;28;4;449;11638;5;467;249;24;5;0;0;0;0;0;0;0;0;6;1039;29854;4;525;525;583;561;32;7;1307;27364;4;1389;482;31;8;645;13393;4;692;464;25;9;382;14715;4;419;354;27
18.11.20;15:10:00;1;310;5520;0;2;1056;14659;4;1125;379;31;3;582;9958;4;635;420;28;4;487;11601;5;507;246;24;5;0;0;0;0;0;0;0;0;6;1159;29765;4;572;577;581;558;32;7;1447;27255;4;1523;471;31;8;694;13339;4;750;466;25;9;487;14683;4;528;361;28
18.11.20;15:05:00;1;314;5494;0;2;1565;14571;4;1655;382;32;3;876;9910;4;935;420;29;4;582;11560;5;606;245;25;5;0;0;0;0;0;0;0;0;6;1671;29667;4;864;858;590;565;32;7;2183;27134;4;2302;478;32;8;1044;13282;4;1111;472;25;9;806;14642;4;859;399;29
18.11.20;15:00:00;1;385;5468;0;2;1783;14439;4;1879;383;32;3;1008;9836;4;1071;427;29;4;644;11511;5;671;244;25;5;0;0;0;0;0;0;0;0;6;1968;29522;4;1002;989;591;574;32;7;2622;26950;4;2746;478;32;8;1276;13194;4;1343;472;25;9;1115;14575;4;1185;449;30
18.11.20;14:55:00;1;309;5437;0;2;1636;14290;4;1727;381;33;3;929;9752;4;989;424;30;4;631;11457;5;657;248;25;5;0;0;0;0;0;0;0;0;6;1869;29358;4;972;958;586;572;32;7;2416;26732;4;2537;478;32;8;1178;13087;4;1245;472;26;9;1110;14481;4;1182;464;30
18.11.20;14:50:00;1;335;5412;0;2;1608;14155;4;1704;403;34;3;878;9675;4;939;432;30;4;624;11405;5;650;240;25;5;0;0;0;0;0;0;0;0;6;1802;29205;4;892;882;583;564;32;7;2282;26532;4;2397;474;33;8;1105;12990;4;1169;463;26;9;1104;14389;4;1180;499;31
18.11.20;14:45:00;1;354;5384;0;2;1851;14021;4;1956;402;34;3;1039;9602;4;1111;453;31;4;684;11353;5;712;246;26;5;0;0;0;0;0;0;0;0;6;2051;29054;4;1037;1029;589;567;33;7;2531;26342;4;2660;470;33;8;1234;12898;4;1301;471;26;9;1309;14297;4;1392;522;32
18.11.20;14:40:00;1;326;5354;0;2;1801;13866;4;1903;401;35;3;1077;9515;4;1149;473;32;4;683;11296;5;712;241;26;5;0;0;0;0;0;0;0;0;6;2052;28882;4;1050;1040;583;564;33;7;2469;26131;4;2593;470;34;8;1198;12795;4;1265;465;26;9;1305;14188;4;1390;521;32
18.11.20;14:35:00;1;351;5328;0;2;2162;13717;4;2284;395;36;3;1328;9426;4;1413;495;32;4;774;11239;5;806;240;27;5;0;0;0;0;0;0;0;0;6;2447;28710;4;1265;1251;584;562;33;7;2950;25925;4;3103;477;34;8;1440;12694;4;1518;457;26;9;1566;14079;4;1663;509;33
18.11.20;14:30:00;1;373;5298;0;2;2576;13535;4;2717;402;37;3;1657;9314;4;1755;501;33;4;889;11174;5;926;242;27;5;0;0;0;0;0;0;0;0;6;3008;28497;4;1541;1509;585;562;33;7;3653;25676;4;3831;469;34;8;1786;12573;4;1876;458;27;9;1957;13947;4;2075;517;34
18.11.20;14:25:00;1;351;5266;0;2;2742;13320;4;2886;397;37;3;1784;9176;4;1889;507;33;4;948;11100;5;988;239;27;5;0;0;0;0;0;0;0;0;6;3264;28245;4;1694;1656;587;564;33;7;3883;25372;4;4076;460;35;8;1907;12424;4;2000;462;27;9;2089;13784;4;2210;513;35
18.11.20;14:20:00;1;297;5239;0;2;2491;13094;4;2622;398;37;3;1617;9028;4;1712;505;33;4;938;11022;5;977;245;27;5;0;0;0;0;0;0;0;0;6;3022;27977;4;1581;1532;585;560;33;7;3582;25049;4;3761;468;35;8;1756;12266;4;1845;461;27;9;1934;13610;4;2048;512;35
18.11.20;14:15:00;1;266;5214;0;2;2521;12885;4;2655;400;38;3;1631;8893;4;1725;503;33;4;956;10943;5;995;240;28;5;0;0;0;0;0;0;0;0;6;3098;27725;4;1594;1542;583;561;33;7;3569;24750;4;3745;468;35;8;1737;12119;4;1826;459;27;9;1921;13449;4;2034;513;35
18.11.20;14:10:00;1;266;5191;0;2;2590;12676;4;2725;395;38;3;1673;8758;4;1773;499;34;4;966;10864;5;1006;234;28;5;0;0;0;0;0;0;0;0;6;3241;27468;4;1660;1610;574;555;33;7;3584;24452;4;3761;462;36;8;1760;11974;4;1848;455;27;9;1928;13288;4;2043;512;35
18.11.20;14:05:00;1;312;5169;0;2;3057;12461;4;3217;390;39;3;1983;8619;4;2094;495;34;4;1095;10784;5;1141;226;28;5;0;0;0;0;0;0;0;0;6;3866;27196;4;1997;1938;573;555;33;7;4361;24154;4;4576;462;36;8;2135;11828;4;2244;459;27;9;2358;13128;4;2495;509;36
18.11.20;14:00:00;1;278;5143;0;2;3168;12207;4;3333;395;39;3;2051;8454;4;2167;497;34;4;1174;10692;5;1223;229;28;5;0;0;0;0;0;0;0;0;6;4075;26871;4;2101;2040;574;557;33;7;4531;23791;4;4759;462;36;8;2227;11650;4;2331;454;27;9;2454;12932;4;2599;508;36